| time (UTC) | temp C | wind direction | speed KPH | gust KPH | rain 1hr cm | rain 24hr cm | rain mn cm | humidity % | barometer mb |
| 20260504221006 | 16 | 281 | 11.3 | 22.5 | 0.00 | 0.00 | 0.00 | 37 | 998.5 |
| 20260504220505 | 16 | 297 | 6.4 | 19.3 | 0.00 | 0.00 | 0.00 | 38 | 998.4 |
| 20260504220005 | 16 | 207 | 3.2 | 9.7 | 0.00 | 0.00 | 0.00 | 37 | 998.4 |
| 20260504215506 | 16 | 227 | 6.4 | 16.1 | 0.00 | 0.00 | 0.00 | 37 | 998.3 |
| 20260504214505 | 16 | 298 | 4.8 | 24.1 | 0.00 | 0.00 | 0.00 | 39 | 998.2 |
| 20260504214005 | 16 | 217 | 4.8 | 12.9 | 0.00 | 0.00 | 0.00 | 40 | 998.3 |
| 20260504213505 | 16 | 268 | 4.8 | 14.5 | 0.00 | 0.00 | 0.00 | 38 | 998.4 |
| 20260504213005 | 16 | 242 | 8.0 | 22.5 | 0.00 | 0.00 | 0.00 | 39 | 998.4 |
| 20260504212005 | 16 | 273 | 6.4 | 19.3 | 0.00 | 0.00 | 0.00 | 36 | 998.6 |
| 20260504211505 | 16 | 261 | 9.7 | 29.0 | 0.00 | 0.00 | 0.00 | 34 | 998.4 |
| 20260504211006 | 16 | 251 | 8.0 | 20.9 | 0.00 | 0.00 | 0.00 | 34 | 998.4 |
| 20260504210506 | 16 | 277 | 11.3 | 25.7 | 0.00 | 0.00 | 0.00 | 32 | 998.4 |
| 20260504210005 | 17 | 265 | 8.0 | 22.5 | 0.00 | 0.00 | 0.00 | 33 | 998.2 |
| 20260504205505 | 17 | 241 | 8.0 | 19.3 | 0.00 | 0.00 | 0.00 | 34 | 998.2 |
| 20260504205006 | 17 | 252 | 6.4 | 20.9 | 0.00 | 0.00 | 0.00 | 31 | 998.0 |
| 20260504204006 | 17 | 262 | 8.0 | 24.1 | 0.00 | 0.00 | 0.00 | 31 | 997.9 |
| 20260504203506 | 17 | 266 | 8.0 | 24.1 | 0.00 | 0.00 | 0.00 | 30 | 997.9 |
| 20260504203006 | 17 | 312 | 8.0 | 27.4 | 0.00 | 0.00 | 0.00 | 31 | 997.9 |
| 20260504202506 | 17 | 298 | 9.7 | 22.5 | 0.00 | 0.00 | 0.00 | 32 | 997.7 |
| 20260504202005 | 17 | 286 | 9.7 | 22.5 | 0.00 | 0.00 | 0.00 | 35 | 997.7 |
| 20260504201506 | 17 | 245 | 4.8 | 19.3 | 0.00 | 0.00 | 0.00 | 33 | 997.7 |
| 20260504201005 | 17 | 258 | 8.0 | 19.3 | 0.00 | 0.00 | 0.00 | 34 | 997.7 |
| 20260504200506 | 17 | 254 | 4.8 | 12.9 | 0.00 | 0.00 | 0.00 | 31 | 997.7 |
| 20260504195506 | 17 | 252 | 4.8 | 16.1 | 0.00 | 0.00 | 0.00 | 31 | 997.6 |
| 20260504195006 | 17 | 236 | 8.0 | 25.7 | 0.00 | 0.00 | 0.00 | 32 | 997.7 |
| 20260504194505 | 17 | 226 | 9.7 | 25.7 | 0.00 | 0.00 | 0.00 | 32 | 997.6 |
| 20260504194005 | 17 | 295 | 11.3 | 27.4 | 0.00 | 0.00 | 0.00 | 31 | 997.5 |
| 20260504193505 | 17 | 254 | 4.8 | 19.3 | 0.00 | 0.00 | 0.00 | 30 | 997.6 |
| 20260504193006 | 17 | 294 | 8.0 | 19.3 | 0.00 | 0.00 | 0.00 | 31 | 997.6 |
| 20260504192505 | 17 | 265 | 9.7 | 24.1 | 0.00 | 0.00 | 0.00 | 31 | 997.6 |
| 20260504192005 | 17 | 225 | 8.0 | 16.1 | 0.00 | 0.00 | 0.00 | 35 | 997.5 |
| 20260504191506 | 17 | 241 | 8.0 | 14.5 | 0.00 | 0.00 | 0.00 | 33 | 997.7 |
| 20260504191006 | 17 | 234 | 4.8 | 12.9 | 0.00 | 0.00 | 0.00 | 36 | 997.5 |
| 20260504190505 | 17 | 269 | 6.4 | 14.5 | 0.00 | 0.00 | 0.00 | 36 | 997.4 |
| 20260504190005 | 17 | 255 | 4.8 | 12.9 | 0.00 | 0.00 | 0.00 | 38 | 997.4 |
| 20260504185505 | 17 | 228 | 3.2 | 9.7 | 0.00 | 0.00 | 0.00 | 37 | 997.3 |
| 20260504184505 | 17 | 272 | 4.8 | 9.7 | 0.00 | 0.00 | 0.00 | 36 | 997.2 |
| 20260504184005 | 17 | 257 | 3.2 | 14.5 | 0.00 | 0.00 | 0.00 | 37 | 997.1 |
| 20260504183506 | 17 | 225 | 4.8 | 14.5 | 0.00 | 0.00 | 0.00 | 37 | 997.1 |
| 20260504182505 | 17 | 272 | 6.4 | 14.5 | 0.00 | 0.00 | 0.00 | 35 | 996.9 |
| 20260504181505 | 17 | 216 | 4.8 | 16.1 | 0.00 | 0.00 | 0.00 | 32 | 996.8 |
| 20260504181005 | 18 | 213 | 8.0 | 19.3 | 0.00 | 0.00 | 0.00 | 30 | 996.7 |
| 20260504180505 | 18 | 222 | 8.0 | 19.3 | 0.00 | 0.00 | 0.00 | 32 | 996.6 |
| 20260504180006 | 18 | 219 | 4.8 | 19.3 | 0.00 | 0.00 | 0.00 | 36 | 996.5 |
| 20260504175505 | 18 | 235 | 6.4 | 11.3 | 0.00 | 0.00 | 0.00 | 34 | 996.4 |
| 20260504175005 | 18 | 230 | 6.4 | 12.9 | 0.00 | 0.00 | 0.00 | 35 | 996.3 |
| 20260504174505 | 18 | 284 | 9.7 | 20.9 | 0.00 | 0.00 | 0.00 | 38 | 996.3 |
| 20260504174006 | 18 | 274 | 6.4 | 16.1 | 0.00 | 0.00 | 0.00 | 37 | 996.4 |
| 20260504173505 | 18 | 225 | 4.8 | 8.0 | 0.00 | 0.00 | 0.00 | 37 | 996.4 |
| 20260504173005 | 18 | 217 | 4.8 | 19.3 | 0.00 | 0.00 | 0.00 | 38 | 996.4 |
| 20260504172505 | 18 | 286 | 6.4 | 19.3 | 0.00 | 0.00 | 0.00 | 39 | 996.3 |
| 20260504172005 | 18 | 282 | 8.0 | 20.9 | 0.00 | 0.00 | 0.00 | 38 | 996.4 |
| 20260504171505 | 18 | 292 | 8.0 | 19.3 | 0.00 | 0.00 | 0.00 | 39 | 996.5 |
| 20260504171005 | 17 | 295 | 1.6 | 4.8 | 0.00 | 0.00 | 0.00 | 37 | 996.4 |
| 20260504170505 | 18 | 264 | 8.0 | 19.3 | 0.00 | 0.00 | 0.00 | 36 | 996.4 |
| 20260504151006 | 17 | 216 | 4.8 | 12.9 | 0.00 | 0.00 | 0.00 | 49 | 995.8 |
| 20260504150505 | 17 | 284 | 3.2 | 9.7 | 0.00 | 0.00 | 0.00 | 48 | 995.9 |
| 20260504141006 | 17 | 225 | 4.8 | 20.9 | 0.00 | 0.00 | 0.00 | 48 | 995.8 |
| 20260504140505 | 17 | 226 | 8.0 | 16.1 | 0.00 | 0.00 | 0.00 | 47 | 995.8 |
| 20260504130505 | 15 | 176 | 8.0 | 19.3 | 0.00 | 0.00 | 0.00 | 51 | 995.1 |
| 20260504110505 | 12 | 189 | 9.7 | 19.3 | 0.00 | 0.00 | 0.00 | 54 | 995.8 |
| 20260504100505 | 11 | 169 | 8.0 | 16.1 | 0.00 | 0.00 | 0.00 | 58 | 996.5 |
| 20260504082006 | 10 | 161 | 3.2 | 9.7 | 0.00 | 0.00 | 0.00 | 60 | 997.7 |
| 20260504081006 | 10 | 174 | 3.2 | 4.8 | 0.00 | 0.00 | 0.00 | 61 | 998.0 |
| 20260504045506 | 11 | 314 | 0.0 | 0.0 | 0.00 | 0.00 | 0.00 | 55 | 1001.1 |
| 20260504045007 | 11 | 314 | 0.0 | 0.0 | 0.00 | 0.00 | 0.00 | 55 | 1001.1 |
| 20260504044506 | 11 | 314 | 0.0 | 0.0 | 0.00 | 0.00 | 0.00 | 56 | 1001.1 |
| 20260504044006 | 11 | 314 | 0.0 | 0.0 | 0.00 | 0.00 | 0.00 | 55 | 1001.2 |
| 20260504043506 | 11 | 314 | 0.0 | 0.0 | 0.00 | 0.00 | 0.00 | 54 | 1001.3 |
| 20260504043006 | 11 | 314 | 0.0 | 0.0 | 0.00 | 0.00 | 0.00 | 54 | 1001.3 |
| 20260504042506 | 11 | 314 | 0.0 | 0.0 | 0.00 | 0.00 | 0.00 | 53 | 1001.4 |
| 20260504042006 | 11 | 314 | 0.0 | 0.0 | 0.00 | 0.00 | 0.00 | 52 | 1001.4 |
| 20260504041506 | 11 | 314 | 0.0 | 0.0 | 0.00 | 0.00 | 0.00 | 52 | 1001.6 |
| 20260504041007 | 11 | 314 | 0.0 | 0.0 | 0.00 | 0.00 | 0.00 | 51 | 1001.6 |
| 20260504040506 | 11 | 314 | 0.0 | 0.0 | 0.00 | 0.00 | 0.00 | 51 | 1001.7 |
| 20260504035506 | 12 | 314 | 0.0 | 0.0 | 0.00 | 0.00 | 0.00 | 50 | 1001.8 |
| 20260504034507 | 12 | 314 | 0.0 | 0.0 | 0.00 | 0.00 | 0.00 | 48 | 1002.0 |
| 20260504034007 | 12 | 314 | 0.0 | 0.0 | 0.00 | 0.00 | 0.00 | 47 | 1002.0 |
| 20260504033506 | 12 | 314 | 0.0 | 0.0 | 0.00 | 0.00 | 0.00 | 46 | 1002.0 |
| 20260504033006 | 12 | 314 | 0.0 | 0.0 | 0.00 | 0.00 | 0.00 | 46 | 1002.0 |
| 20260504032506 | 12 | 314 | 0.0 | 0.0 | 0.00 | 0.00 | 0.00 | 45 | 1002.0 |
| 20260504032006 | 12 | 314 | 0.0 | 0.0 | 0.00 | 0.00 | 0.00 | 45 | 1002.1 |
| 20260504031507 | 13 | 314 | 0.0 | 0.0 | 0.00 | 0.00 | 0.00 | 44 | 1002.2 |
| 20260504030507 | 13 | 314 | 0.0 | 0.0 | 0.00 | 0.00 | 0.00 | 44 | 1002.4 |
| 20260504030006 | 13 | 314 | 0.0 | 0.0 | 0.00 | 0.00 | 0.00 | 44 | 1002.5 |
| 20260504025506 | 13 | 314 | 0.0 | 0.0 | 0.00 | 0.00 | 0.00 | 44 | 1002.6 |
| 20260504025006 | 13 | 314 | 0.0 | 0.0 | 0.00 | 0.00 | 0.00 | 44 | 1002.6 |
| 20260504024506 | 13 | 314 | 0.0 | 0.0 | 0.00 | 0.00 | 0.00 | 44 | 1002.6 |
| 20260504024006 | 13 | 314 | 0.0 | 0.0 | 0.00 | 0.00 | 0.00 | 43 | 1002.6 |
| 20260504023506 | 14 | 314 | 0.0 | 0.0 | 0.00 | 0.00 | 0.00 | 42 | 1002.5 |
| 20260504023006 | 14 | 314 | 0.0 | 0.0 | 0.00 | 0.00 | 0.00 | 41 | 1002.5 |
| 20260504021507 | 15 | 314 | 0.0 | 0.0 | 0.00 | 0.00 | 0.00 | 40 | 1002.5 |
| 20260504021006 | 15 | 314 | 0.0 | 0.0 | 0.00 | 0.00 | 0.00 | 39 | 1002.4 |
| 20260504020506 | 15 | 314 | 0.0 | 0.0 | 0.00 | 0.00 | 0.00 | 38 | 1002.4 |
| 20260504020006 | 15 | 314 | 0.0 | 0.0 | 0.00 | 0.00 | 0.00 | 38 | 1002.4 |
| 20260504015505 | 15 | 314 | 0.0 | 0.0 | 0.00 | 0.00 | 0.00 | 38 | 1002.4 |
| 20260504015006 | 16 | 314 | 0.0 | 0.0 | 0.00 | 0.00 | 0.00 | 37 | 1002.4 |
| 20260504014506 | 16 | 314 | 0.0 | 0.0 | 0.00 | 0.00 | 0.00 | 37 | 1002.3 |
| 20260504014006 | 16 | 314 | 0.0 | 0.0 | 0.00 | 0.00 | 0.00 | 37 | 1002.3 |
| 20260504013506 | 16 | 314 | 0.0 | 0.0 | 0.00 | 0.00 | 0.00 | 36 | 1002.2 |
| 20260504013007 | 17 | 314 | 0.0 | 0.0 | 0.00 | 0.00 | 0.00 | 36 | 1002.3 |
| 20260504012006 | 17 | 314 | 0.0 | 0.0 | 0.00 | 0.00 | 0.00 | 34 | 1002.2 |
| 20260504011506 | 17 | 314 | 0.0 | 1.6 | 0.00 | 0.00 | 0.00 | 34 | 1002.3 |
| 20260504011006 | 17 | 314 | 0.0 | 0.0 | 0.00 | 0.00 | 0.00 | 34 | 1002.3 |
| 20260504010506 | 17 | 314 | 0.0 | 1.6 | 0.00 | 0.00 | 0.00 | 33 | 1002.2 |
| 20260504005506 | 18 | 314 | 1.6 | 4.8 | 0.00 | 0.00 | 0.00 | 33 | 1002.3 |
| 20260504005007 | 18 | 314 | 0.0 | 1.6 | 0.00 | 0.00 | 0.00 | 34 | 1002.2 |
| 20260504003506 | 18 | 314 | 1.6 | 4.8 | 0.00 | 0.00 | 0.00 | 31 | 1002.3 |
| 20260504003008 | 19 | 314 | 1.6 | 4.8 | 0.00 | 0.00 | 0.00 | 31 | 1002.3 |
| 20260504002506 | 19 | 314 | 1.6 | 4.8 | 0.00 | 0.00 | 0.00 | 30 | 1002.4 |
| 20260504001506 | 19 | 290 | 1.6 | 4.8 | 0.00 | 0.00 | 0.00 | 30 | 1002.5 |
| 20260504001006 | 19 | 296 | 3.2 | 9.7 | 0.00 | 0.00 | 0.00 | 31 | 1002.4 |
| 20260504000506 | 20 | 253 | 1.6 | 4.8 | 0.00 | 0.00 | 0.00 | 29 | 1002.4 |
| 20260504000006 | 20 | 311 | 3.2 | 8.0 | 0.00 | 0.00 | 0.00 | 30 | 1002.4 |
| 20260503235506 | 20 | 292 | 4.8 | 14.5 | 0.00 | 0.00 | 0.00 | 30 | 1002.4 |
| 20260503234506 | 20 | 284 | 3.2 | 12.9 | 0.00 | 0.00 | 0.00 | 30 | 1002.4 |
| 20260503233506 | 20 | 307 | 3.2 | 9.7 | 0.00 | 0.00 | 0.00 | 31 | 1002.5 |
| 20260503233006 | 20 | 312 | 4.8 | 12.9 | 0.00 | 0.00 | 0.00 | 32 | 1002.6 |
| 20260503232506 | 20 | 292 | 4.8 | 11.3 | 0.00 | 0.00 | 0.00 | 30 | 1002.5 |
| 20260503232006 | 20 | 295 | 4.8 | 11.3 | 0.00 | 0.00 | 0.00 | 29 | 1002.5 |
| 20260503231506 | 20 | 201 | 4.8 | 12.9 | 0.00 | 0.00 | 0.00 | 29 | 1002.6 |
| 20260503231006 | 20 | 299 | 3.2 | 11.3 | 0.00 | 0.00 | 0.00 | 29 | 1002.6 |
| 20260503230006 | 20 | 306 | 3.2 | 12.9 | 0.00 | 0.00 | 0.00 | 28 | 1002.6 |
| 20260503225506 | 20 | 291 | 4.8 | 16.1 | 0.00 | 0.00 | 0.00 | 28 | 1002.6 |
| 20260503225006 | 20 | 305 | 4.8 | 14.5 | 0.00 | 0.00 | 0.00 | 27 | 1002.6 |
| 20260503224506 | 20 | 279 | 4.8 | 14.5 | 0.00 | 0.00 | 0.00 | 27 | 1002.5 |
| 20260503224006 | 20 | 288 | 4.8 | 14.5 | 0.00 | 0.00 | 0.00 | 29 | 1002.5 |
| 20260503223506 | 21 | 254 | 3.2 | 16.1 | 0.00 | 0.00 | 0.00 | 30 | 1002.5 |
| 20260503223006 | 21 | 311 | 4.8 | 14.5 | 0.00 | 0.00 | 0.00 | 30 | 1002.5 |
| 20260503222506 | 21 | 302 | 3.2 | 14.5 | 0.00 | 0.00 | 0.00 | 32 | 1002.5 |
| 20260503222006 | 21 | 300 | 4.8 | 12.9 | 0.00 | 0.00 | 0.00 | 30 | 1002.5 |
| 20260503221506 | 21 | 295 | 3.2 | 14.5 | 0.00 | 0.00 | 0.00 | 33 | 1002.4 |